This is the latest recevied weather packets stored in our database for station/object KE5AKC. If no packets are shown the sender has not sent any weather packets the latest 10 day(s).
| Time | Temp. | Humidity | Pressure | Rain* | Wind** | Luminosity | Snow |
|---|---|---|---|---|---|---|---|
| 1777827648 | 26.11° C | 36% | 1022.9 hPa | 0 mm | - | 934 W/m² | - |
| 1777827345 | 25.56° C | 35% | 1022.9 hPa | 0 mm | - | 928 W/m² | - |
| 1777827041 | 25.56° C | 34% | 1022.9 hPa | 0 mm | - | 918 W/m² | - |
| 1777826738 | 25.56° C | 36% | 1022.9 hPa | 0 mm | - | 910 W/m² | - |
| 1777826435 | 25.56° C | 37% | 1022.9 hPa | 0 mm | - | 899 W/m² | - |
| 1777826132 | 26.11° C | 35% | 1022.9 hPa | 0 mm | - | 891 W/m² | - |
| 1777825829 | 25.56° C | 35% | 1022.9 hPa | 0 mm | - | 878 W/m² | - |
| 1777825526 | 25.56° C | 35% | 1022.9 hPa | 0 mm | - | 867 W/m² | - |
| 1777825224 | 25.56° C | 36% | 1022.9 hPa | 0 mm | - | 857 W/m² | - |
| 1777824921 | 25.56° C | 37% | 1022.9 hPa | 0 mm | - | 846 W/m² | - |
| 1777824617 | 26.11° C | 35% | 1022.9 hPa | 0 mm | - | 833 W/m² | - |
| 1777824314 | 25.56° C | 37% | 1023.2 hPa | 0 mm | - | 819 W/m² | - |
| 1777824009 | 25.56° C | 35% | 1022.9 hPa | 0 mm | - | 809 W/m² | - |
| 1777823706 | 25.56° C | 39% | 1022.9 hPa | 0 mm | - | 793 W/m² | - |
| 1777823403 | 25° C | 39% | 1023.2 hPa | 0 mm | - | 778 W/m² | - |
| 1777823100 | 25° C | 39% | 1022.9 hPa | 0 mm | - | 763 W/m² | - |
| 1777822798 | 24.44° C | 37% | 1023.2 hPa | 0 mm | - | 748 W/m² | - |
| 1777822496 | 24.44° C | 36% | 1022.9 hPa | 0 mm | - | 735 W/m² | - |
| 1777822193 | 24.44° C | 37% | 1022.9 hPa | 0 mm | - | 718 W/m² | - |
| 1777821890 | 23.89° C | 39% | 1022.9 hPa | 0 mm | - | 703 W/m² | - |
| 1777821588 | 24.44° C | 38% | 1022.9 hPa | 0 mm | - | 682 W/m² | - |
| 1777821285 | 23.89° C | 44% | 1022.9 hPa | 0 mm | - | 668 W/m² | - |
| 1777820982 | 23.89° C | 39% | 1022.9 hPa | 0 mm | - | 649 W/m² | - |
| 1777820673 | 23.89° C | 44% | 1022.9 hPa | 0 mm | - | 631 W/m² | - |
| 1777820369 | 23.33° C | 44% | 1022.9 hPa | 0 mm | - | 613 W/m² | - |
* Rain latest hour (hover to see other rain measurements)
** Current wind speed in m/s (hover to see current wind gust speed)